TimeMST,TemperatureF,Dew PointF,Humidity,Sea Level PressureIn,VisibilityMPH,Wind Direction,Wind SpeedMPH,Gust SpeedMPH,PrecipitationIn,Events,Conditions,WindDirDegrees,DateUTC
12:55 AM,30.9,23.0,72,30.03,10.0,WNW,6.9,-,N/A,,Clear,290,2013-01-18 07:55:00
1:55 AM,35.1,23.0,61,30.00,10.0,WSW,11.5,-,N/A,,Clear,250,2013-01-18 08:55:00
2:55 AM,33.1,21.9,64,29.99,10.0,WSW,15.0,-,N/A,,Clear,250,2013-01-18 09:55:00
3:55 AM,33.1,21.9,64,29.96,10.0,West,10.4,-,N/A,,Clear,270,2013-01-18 10:55:00
4:55 AM,30.9,21.0,67,29.97,10.0,NW,6.9,-,N/A,,Clear,320,2013-01-18 11:55:00
5:55 AM,30.0,19.9,66,29.97,10.0,West,6.9,-,N/A,,Clear,270,2013-01-18 12:55:00
6:55 AM,28.9,19.9,69,29.97,10.0,West,13.8,-,N/A,,Clear,260,2013-01-18 13:55:00
7:55 AM,30.0,19.9,66,29.99,10.0,West,11.5,-,N/A,,Clear,260,2013-01-18 14:55:00
8:55 AM,34.0,21.9,61,30.00,10.0,West,11.5,-,N/A,,Clear,260,2013-01-18 15:55:00
9:55 AM,39.0,24.1,55,29.99,10.0,West,11.5,-,N/A,,Clear,260,2013-01-18 16:55:00
10:55 AM,42.1,26.1,53,29.95,10.0,WSW,17.3,-,N/A,,Clear,250,2013-01-18 17:55:00
11:55 AM,44.1,26.1,49,29.93,10.0,SW,10.4,-,N/A,,Clear,230,2013-01-18 18:55:00
12:55 PM,46.0,28.9,51,29.90,10.0,SW,13.8,-,N/A,,Clear,230,2013-01-18 19:55:00
1:55 PM,48.0,28.9,48,29.88,10.0,WSW,10.4,-,N/A,,Clear,240,2013-01-18 20:55:00
2:55 PM,44.1,28.9,55,29.88,10.0,WSW,12.7,-,N/A,,Clear,240,2013-01-18 21:55:00
3:55 PM,42.1,28.0,58,29.88,10.0,WSW,11.5,-,N/A,,Clear,250,2013-01-18 22:55:00
4:55 PM,39.0,27.0,62,29.90,10.0,NNW,8.1,-,N/A,,Clear,330,2013-01-18 23:55:00
5:55 PM,37.9,28.0,68,29.90,10.0,West,9.2,-,N/A,,Clear,260,2013-01-19 00:55:00
6:55 PM,37.0,28.0,70,29.91,10.0,West,10.4,-,N/A,,Clear,260,2013-01-19 01:55:00
7:55 PM,36.0,27.0,70,29.89,10.0,West,10.4,-,N/A,,Clear,270,2013-01-19 02:55:00
8:55 PM,36.0,27.0,70,29.88,10.0,West,9.2,-,N/A,,Partly Cloudy,270,2013-01-19 03:55:00
9:55 PM,37.0,27.0,67,29.88,10.0,WSW,9.2,-,N/A,,Scattered Clouds,250,2013-01-19 04:55:00
10:55 PM,37.0,27.0,67,29.88,10.0,West,8.1,-,N/A,,Mostly Cloudy,270,2013-01-19 05:55:00
11:55 PM,39.0,26.1,60,29.88,10.0,West,6.9,-,N/A,,Clear,270,2013-01-19 06:55:00